Regional Weather Roundup
Issued by NWS

Home | Current Version | Previous Version | Text Only | Print | Product List | Glossary On
Versions: 1 2 3 4 5 6 7 8 9 10 11 12 13 14 15 16 17 18 19 20 21 22 23 24 25 26 27 28 29 30 31 32 33 34 35 36 37 38 39 40 41 42 43 44 45 46 47 48 49 50
000
ASUS44 KOUN 240210
RWROK

WEATHER ROUNDUP FOR OKLAHOMA
NATIONAL WEATHER SERVICE NORMAN OK
800 PM CST SUN NOV 23 2014

NOTE: "FAIR" INDICATES FEW OR NO CLOUDS BELOW 12,000 FEET WITH NO
      SIGNIFICANT WEATHER AND/OR OBSTRUCTIONS TO VISIBILITY.

OKZ001>007-009>012-014-015-017-240300-
NORTHWEST OKLAHOMA AND THE PANHANDLE

CITY           SKY/WX    TMP DP  RH WIND       PRES   REMARKS
GAGE           CLOUDY    40  27  59 NW8       29.76R WCI  34
ENID/WOODRING  CLOUDY    45  39  81 NW13G21   29.66R
$$

OKZ016-021>023-033>039-044-045-240300-
SOUTHWEST OKLAHOMA

CITY           SKY/WX    TMP DP  RH WIND       PRES   REMARKS
LAWTON/REGL    MOCLDY    48  36  63 NW12      29.74R
LAWTON/FT SILL CLOUDY    46  38  72 NW10G21   29.73R
FREDERICK      CLOUDY    50  35  56 NW16G26   29.74R
CLINTON        CLOUDY    48  31  51 NW13      29.76R
HOBART         CLOUDY    47  35  63 NW10      29.76R
ALTUS AFB      MOCLDY    50  35  57 NW12      29.77R
$$

OKZ018>020-024>031-240300-
CENTRAL OKLAHOMA

CITY           SKY/WX    TMP DP  RH WIND       PRES   REMARKS
OKLAHOMA CITY  LGT RAIN  44  38  79 N25G35    29.68R
OKC/WILEY POST CLOUDY    44  39  82 N18G29    29.68R
OKC/TINKER AFB LGT RAIN  43  39  86 NW25G36   29.66R
STILLWATER     LGT RAIN  43  39  86 NW15G28   29.65R
GUTHRIE        CLOUDY    43  39  86 NW12G21   29.68R
$$

OKZ008-013-054>072-240300-
NORTHEAST OKLAHOMA

CITY           SKY/WX    TMP DP  RH WIND       PRES   REMARKS
TULSA          LGT RAIN  47  42  83 NW28G35   29.52R
TULSA/JONES    LGT RAIN  48  41  76 N14G28    29.54R
PONCA CITY     CLOUDY    43  39  86 NW10      29.63R
BARTLESVILLE   LGT RAIN  44  41  89 VRB7G23   29.55R FOG
MUSKOGEE       LGT RAIN  52  43  71 NW23G44   29.49R
$$

OKZ032-040>043-046>053-073>077-240300-
SOUTH CENTRAL/SOUTHEAST OKLAHOMA

CITY           SKY/WX    TMP DP  RH WIND       PRES   REMARKS
ARDMORE/DWNTWN CLOUDY    48  37  66 N9G25     29.67R
MCALESTER      LGT RAIN  52  44  74 NW18G29   29.54R
$$




USA.gov is the U.S. government's official web portal to all federal, state and local government web resources and services.